Regional Weather Roundup
Issued by NWS New Orleans/Baton Rouge, LA

Home | Current Version | Previous Version | Text Only | Print | Product List | Glossary On
Versions: 1 2 3 4 5 6 7 8 9 10 11 12 13 14 15 16 17 18 19 20 21 22 23 24 25 26 27 28 29 30 31 32 33 34 35 36 37 38 39 40 41 42 43 44 45 46 47 48 49 50
246
ASUS44 KLIX 271401
RWRLIX
NEW ORLEANS REGIONAL WEATHER ROUNDUP
NATIONAL WEATHER SERVICE NEW ORLEANS LA
800 AM CST TUE JAN 27 2015

NOTE: "FAIR" INDICATES FEW OR NO CLOUDS BELOW 12,000 FEET WITH NO
      SIGNIFICANT WEATHER AND/OR OBSTRUCTIONS TO VISIBILITY.
      SKY/WX - SKY CONDITION AND SIGNIFICANT WEATHER.
      TMP - AIR TEMPERATURE.     DP    - DEWPOINT TEMPERATURE.
      RH  - RELATIVE HUMIDITY.   PRES  - PRESSURE.
      HI  - HEAT INDEX.          WCI   - WIND CHILL INDEX.

*  THESE STATIONS ARE NOT NWS OR FAA STATIONS AND ARE NOT UNDER
   NWS QUALITY CONTROL.

LAZ038-040-048-061>063-065>067-069-271500-
SOUTHEAST LOUISIANA

CITY           SKY/WX    TMP DP  RH WIND       PRES   REMARKS
N.O. AUDUBON   NOT AVBL
N.O. INTL ARPT MOSUNNY   50  43  77 W3        30.11R
N.O. LAKEFRONT SUNNY     54  46  74 W9        30.12R
N.O. DOWNTOWN*   N/A     50  39  66 CALM      30.12R
SLIDELL        SUNNY     49  42  77 CALM      30.10R
BATON ROUGE    SUNNY     44  41  89 CALM      30.11R
BOOTHVILLE     SUNNY     53  46  77 NW7       30.11R
BELLE CHASSE   MOSUNNY   51  42  71 CALM      30.11R
BOGALUSA*        N/A     40  36  87 CALM      30.11R
GALLIANO*      NOT AVBL
NEW ROADS*     NOT AVBL
GONZALES*      NOT AVBL
HAMMOND*       NOT AVBL
HOUMA*         NOT AVBL
PORT FOURCHON* SUNNY     57  52  82 W8        30.15R

$$

MSZ070-080>082-271500-
SOUTHERN MISSISSIPPI

CITY           SKY/WX    TMP DP  RH WIND       PRES   REMARKS
MCCOMB         SUNNY     48  38  68 NW6       30.09R
GULFPORT       SUNNY     47  39  74 NW7       30.09R
BILOXI         SUNNY     49  39  67 NW7       30.09R
PASCAGOULA     SUNNY     47  38  71 NW5       30.08R
STENNIS ARPT*  SUNNY     45  37  76 CALM      30.10R

$$

COASTAL OBSERVATIONS
LAKE AND NEARSHORE STATIONS

STATION/POSITION TIME  TEMP    WIND        PRES    WAVE
                       AIR SEA DIR/SP/G            HT/PER
                 (UTC) (F)     (DEG/KT/KT) (MB)    (FT/S)
PASCAGOULA       1319   50     300/  8/ 11 1017.5
WAVELAND YACHT   1319   47     310/  8/ 11 1017.6
GRAND ISLE       1319   55 55  280/ 12/ 13 1019.6
SOUTHWEST PASS   1319   59 45  300/ 14/ 18 1019.7
NEW CANAL        1319   52 51  260/  5/  7 1019.3
SHELL BEACH      1319   47 52  250/  5/  6 1018.8

OFFSHORE STATIONS

STATION/POSITION TIME  TEMP    WIND        PRES    WAVE
                       AIR SEA DIR/SP/G            HT/PER
                 (UTC) (F)     (DEG/KT/KT) (MB)    (FT/S)
64 S DAUPHIN ISL 1308   63 70  300/ 21/ 27 1018.8    5/ 7

$$




USA.gov is the U.S. government's official web portal to all federal, state and local government web resources and services.